Location: Unspecified
(0.0000°N, 0.0000°E)
Time: 04:36:59
(UTC+00:00)

KAITUO 1B - Pass Details

Date: 02 April 2019
Orbit: 497 x 517 km, 97.4° (Epoch: 17 June)

Event Time Altitude Azimuth Distance (km) Brightness Sun altitude
Rises 05:03:18 0° 47° (NE) 2,596 ? -15.1°
Reaches altitude 10° 05:06:36 10° 80° (E) 1,721 ? -14.2°
Maximum altitude 05:07:59 12° 102° (ESE) 1,615 ? -13.9°
Drops below altitude 10° 05:09:23 10° 124° (SE) 1,729 ? -13.5°
Sets 05:12:42 0° 156° (SSE) 2,624 ? -12.7°
